NOAA 16 DEB, 41706

Orbit data source: Space-Track

NOAA 16 DEB, 41706 is space debris in SSO originally from a launch on Thu, 21 Sep 2000 UTC launched from the Air Force Western Test Range (AFWTR). Debris objects in space refer to the collection of defunct objects orbiting the Earth. Examples of debris include non-operational satellites, rocket bodies, and fragments generated from explosions, collisions, or faulty payload assembly.

Loading next visibility...
Identifier
41706, 2000-055PL
Orbit
SSO
Country
Flag of USUS
Related business
Manufacturer
Unknown
Mission
Spacecraft
Bus & Motor
Unknown
Mass
Unknown
Launch date (UTC)
2000-09-21 (25 years ago)
Launch vehicle
Unknown
Launch site
Air Force Western Test Range (AFWTR)
Object type
Payload
Rocket body
Debris
Shape & HBR
Unknown shape, 0.1 m
Radar Cross Section
Small (<0.1 m²)

Expand to show TLE details & history
Last TLE update: 6 days ago

TLE from 6 days ago
0 NOAA 16 DEB
1 41706U 00055PL  25289.03233454  .00003328  00000-0  17218-2 0  9995
2 41706  98.6963 318.9779 0034948 178.7276 181.3993 14.15280169494605
Epoch: 2025-10-16T00:46Z
TLE epoch observation values (Epoch: 2025-10-16T00:46:33.704Z)
Latitude
Longitude
-77.46042°
Altitude
869.496 km
Speed
7.405 km/s
True Right ascension
21h 15m 54s
True Declination
0° 00' 00"
Sunlit
Object was in daylight at epoch
Visualization orbit readout
Latitude
Unknown
Longitude
Unknown
Altitude
Unknown
Speed
Unknown
Apparent Right ascension
Unknown
Apparent Declination
Unknown
Sunlit
N/A
Visualization observer readout
Local Sidereal Time
12:45:50
Azimuth
Unknown
Elevation
Unknown
Doppler factor
Unknown
Orbital elements
Apogee altitude
863.744 km
Perigee altitude
813.303 km
Semi-major axis
7,216.66 km
Eccentricity
0.00349
Inclination
98.6963°
RAAN
318.9779°
Arg. of periapsis
178.7276°
True anomaly
181.38956°
Mean anomaly
181.3993°
Eccentric anomaly
181.39443°
Mean motion
3.54029 °/min
Orbital period
101.69 mins
BSTAR
0.0017218
Loading maneuver chart data...
Computing Atmospheric mass density...

Documentation

Showing up to 5 results
|